Regional Weather Roundup
Issued by NWS

Home | Current Version | Previous Version | Text Only | Print | Product List | Glossary On
Versions: 1 2 3 4 5 6 7 8 9 10 11 12 13 14 15 16 17 18 19 20 21 22 23 24 25 26 27 28 29 30 31 32 33 34 35 36 37 38 39 40 41 42 43 44 45 46 47 48 49 50
000
ASUS45 KBOU 152310
RWRCO

WEATHER ROUNDUP FOR COLORADO
NATIONAL WEATHER SERVICE DENVER/BOULDER CO
400 PM MST THU NOV 15 2018

NOTE: "FAIR" INDICATES FEW OR NO CLOUDS BELOW 12000 FEET WITH NO
SIGNIFICANT WEATHER AND/OR OBSTRUCTIONS TO VISIBILITY.

COZ001>005-013-030-031-160000-
...NORTHWEST COLORADO...

CITY           SKY/WX    TMP DP  RH WIND       PRES   REMARKS
CRAIG          FAIR      50  19  29 W3        30.22F
HAYDEN         FAIR      47  16  29 W7        30.24F
MEEKER         FAIR      54  13  19 N7        30.21S
RANGELY        FAIR      50  16  25 W5        30.22S
RABBIT EARS PA FAIR      28  19  69 SW5       30.31S WCI  23
STEAMBOAT SPGS FAIR      45  17  32 CALM      30.23F
WALDEN         FAIR      39  12  33 S8        30.25S
$$

COZ006>008-011-160000-
...WEST CENTRAL VALLEYS...

CITY           SKY/WX    TMP DP  RH WIND       PRES   REMARKS
GRAND JUNCTION FAIR      52  22  30 NW7       30.20F
MONTROSE       FAIR      51  19  28 N5        30.22F
EAGLE          FAIR      51  17  26 CALM      30.23F
RIFLE          FAIR      54  19  25 NW3       30.19F
DELTA          FAIR      56  16  20 SW5       30.20F
NUCLA          FAIR      54  14  20 CALM      30.23S
$$

COZ017>023-064>068-160000-
...SOUTHWEST COLORADO...

CITY           SKY/WX    TMP DP  RH WIND       PRES   REMARKS
DURANGO        FAIR      49  22  34 SW8       30.20S
CORTEZ         FAIR      49  15  25 SW9       30.20F
PAGOSA SPRINGS FAIR      53  13  21 SW6       30.22S
TELLURIDE      FAIR      45  14  29 W13       30.28S
WOLF CREEK PAS FAIR      32  14  47 SW6       30.41S WCI  26
$$

COZ009-010-012-014-032>034-037-058>063-160000-
...CENTRAL COLORADO...

CITY           SKY/WX    TMP DP  RH WIND       PRES   REMARKS
ASPEN          FAIR      45  13  27 W3        30.23S
BUENA VISTA    FAIR      51   8  18 NW13      30.19S
COPPER MTN     FAIR      34   9  35 NW7       30.35R WCI  28
BERTHOUD PASS  FAIR      21   7  53 N8G24     30.32F WCI  12
COTTONWOOD PAS FAIR      45  -2  14 W7G16     30.27S
GUNNISON       FAIR      44  18  35 NE5       30.24F
GRANBY         FAIR      42  14  32 S3        30.26F
KREMMLING      FAIR      41  19  42 CALM      30.26F
LEADVILLE      FAIR      38  10  31 NW9       30.27S
MONARCH PASS   FAIR      28  10  47 SW20G26   30.44S WCI  15
SALIDA         FAIR      52  17  25 SW8       30.25S
SUNLIGHT       FAIR      32   9  37 W6        30.37S WCI  26
WILKERSON PASS FAIR      36   5  27 W3        30.33S
$$

COZ069>075-160000-
...SAN LUIS VALLEY/SANGRE DE CRISTO MOUNTAINS...

CITY           SKY/WX    TMP DP  RH WIND       PRES   REMARKS
ALAMOSA        FAIR      49  14  24 CALM      30.21F
DEL NORTE      FAIR      43  22  44 CALM      30.23F
LA VETA PASS   NOT AVBL
SAGUACHE       FAIR      45  21  39 CALM      30.23S
$$

COZ035-036-038>040-160000-
...NORTHERN COLORADO FRONT RANGE...

CITY           SKY/WX    TMP DP  RH WIND       PRES   REMARKS
DENVER INTL AP FAIR      54  19  25 E9        30.12S
AURORA         PTCLDY    49  21  33 E7        30.13S
FRONT RANGE AP PTCLDY    54  21  28 E3        30.14R
ERIE MUNI ARPT FAIR      56  15  19 SE7       30.16S
BOULDER MUN AP FAIR      54  21  28 E5        30.11R
CENTENNIAL     MOCLDY    53  21  28 SE8       30.14R
BROOMFIELD     PTCLDY    55  18  22 SE6       30.13S
FORT COLLINS   FAIR      58  23  26 S8        30.10S
LONGMONT       FAIR      60  20  21 SE8       30.12S
$$

COZ041-046-047-076>085-087-088-160000-
...PIKES PEAK/PALMER DIVIDE AND SOUTHERN FOOTHILLS...

CITY           SKY/WX    TMP DP  RH WIND       PRES   REMARKS
COLO. SPRINGS  FAIR      53  20  27 E13       30.16R
A. F. ACADEMY  FAIR      53  18  25 E10       30.15R
SCHRIEVER AFB  NOT AVBL
CHEYENNE MTN   FAIR      48  17  29 SE5       30.13R
ELLICOTT         N/A    N/A N/A N/A E8        30.15R
FALCON         FAIR      49  17  28 NE9       30.18S
FORT CARSON    FAIR      55  20  26 E10       30.14R
LIMON          FAIR      52  21  29 N7        30.14S
MONUMENT HILL  FAIR      45  21  39 E6        30.19R
CANON CITY     FAIR      61  18  18 SE12      30.11R
WALSENBURG     NOT AVBL
TRINIDAD       FAIR      55  24  30 SE8       30.14R
$$

COZ042>045-048>051-090-091-160000-
...NORTHEAST COLORADO...

CITY           SKY/WX    TMP DP  RH WIND       PRES   REMARKS
GREELEY ARPT   FAIR      60  20  21 SW9       30.10R
AKRON          FAIR      53  22  29 NE8       30.11S
BURLINGTON     FAIR      52  26  36 NE8       30.11R
WRAY           FAIR      52  23  32 N8        30.10S
YUMA           FAIR      50   9  18 N7        30.10S
STERLING       FAIR      57  23  26 N8        30.08S
HOLYOKE        FAIR      59  27  29 N9        30.10S
FORT MORGAN      N/A     57  13  17 NE6       30.11S
$$

COZ086-089-092>099-160000-
...SOUTHEAST COLORADO...

CITY           SKY/WX    TMP DP  RH WIND       PRES   REMARKS
PUEBLO         FAIR      62  21  20 SE9       30.10R
LA JUNTA       FAIR      62  25  24 NE8       30.10R
LAMAR          FAIR      62  26  25 N8        30.09R
SPRINGFIELD      N/A     57  26  30 N10       30.10R
$$



USA.gov is the U.S. government's official web portal to all federal, state and local government web resources and services.